GFSMA_sfc_thetae_132.txt.gz
Theta_e
327 326 326 326 325 327 328 328 328 328 328 327 328 327 326 324 321 317 319 318 323 320 318 316 316 315 314 313 313 312 312 311 310 310 310 310 310 309 309 310 309 309 309
327 325 325 325 325 327 328 329 328 328 328 328 327 327 327 323 320 316 317 318 319 319 316 315 315 315 315 313 312 312 311 311 310 309 309 309 308 307 308 308 308 308 308
327 325 324 324 325 327 329 329 329 329 328 326 325 326 326 322 319 314 314 316 315 316 317 315 314 314 315 314 313 312 311 311 310 309 309 308 307 307 306 306 306 306 307
328 325 323 324 326 328 328 328 328 327 327 324 324 325 324 317 318 313 312 315 316 317 314 314 313 313 314 315 314 313 312 311 310 310 308 308 307 306 305 305 305 306 306
329 327 326 326 327 327 327 328 327 327 325 325 322 322 322 317 317 315 315 315 315 314 316 313 312 311 312 314 315 314 313 311 310 309 309 308 307 306 305 305 305 305 305
329 329 328 327 327 327 326 327 326 327 326 324 317 315 318 318 318 317 316 315 314 313 313 312 311 307 308 312 314 315 314 312 311 310 309 308 307 306 305 305 305 305 305
328 329 328 328 328 326 326 327 327 325 324 323 314 313 311 313 317 316 316 315 314 311 310 309 309 307 306 310 312 313 314 314 312 310 309 309 307 306 306 306 305 305 305
329 328 329 328 328 326 326 326 325 323 323 321 314 312 309 310 313 314 315 313 313 312 308 307 306 304 305 306 308 311 312 313 312 311 309 309 308 307 306 306 306 305 304
328 329 328 328 328 327 325 325 325 324 320 322 320 315 306 306 313 314 310 311 311 311 309 306 304 303 301 303 303 305 309 310 311 311 310 309 308 307 307 306 306 305 304
327 327 327 327 327 327 325 326 325 325 324 319 319 317 316 316 310 310 314 310 309 308 309 307 304 302 300 296 296 300 302 305 307 308 309 308 308 307 306 306 305 305 304
328 327 327 327 326 327 326 325 325 324 325 323 321 320 319 318 314 310 308 314 310 308 308 307 305 299 296 292 294 296 300 303 304 305 306 306 306 306 306 305 304 304 304
328 327 327 327 326 326 325 325 326 325 324 324 323 323 319 315 314 312 308 310 311 312 303 300 300 295 291 292 293 294 298 300 302 302 303 303 303 304 304 304 303 303 303
326 326 326 325 326 326 325 325 325 324 324 324 323 323 322 320 321 317 312 310 309 302 295 296 295 295 293 295 296 293 294 297 299 300 301 301 301 301 301 302 302 302 302
327 327 326 326 326 325 325 325 325 324 324 325 323 323 321 321 321 318 314 312 308 297 294 298 298 297 298 295 296 293 293 295 297 299 301 301 300 300 300 301 301 301 300
327 327 327 325 326 326 325 324 324 323 323 322 321 320 319 319 319 318 316 314 310 305 302 303 300 298 295 298 295 294 293 293 295 297 299 300 300 300 300 300 300 300 300
328 325 326 325 325 325 325 324 323 321 319 318 318 317 317 317 317 316 313 311 305 307 302 303 301 296 297 293 293 292 293 292 293 295 297 298 299 299 299 299 299 299 298
326 325 324 324 324 324 324 322 319 318 316 317 317 315 314 315 314 308 302 300 299 299 298 296 295 297 295 293 293 292 293 294 292 293 295 296 297 297 298 298 298 298 297
326 324 323 322 322 322 322 320 318 317 316 315 315 312 312 305 305 302 299 300 299 299 297 295 297 295 291 292 292 294 292 291 290 291 293 294 295 295 296 296 296 296 296
323 322 321 320 319 320 319 318 318 317 314 314 310 307 306 304 301 299 297 296 295 295 295 293 292 291 292 293 292 292 289 288 291 292 292 293 293 294 294 294 294 294 294
320 319 318 317 317 317 317 315 312 308 305 303 302 302 301 300 300 298 295 295 294 294 291 290 291 291 291 289 288 287 287 289 290 291 290 291 292 292 293 294 294 293 294
311 311 308 306 305 304 302 303 302 301 300 298 297 297 296 293 291 295 294 294 293 291 290 290 288 287 287 285 286 289 287 290 291 291 291 292 291 291 291 291 291 291 292
299 297 296 297 297 296 295 296 298 298 297 297 296 294 293 291 293 292 293 292 293 291 287 288 288 288 288 288 289 289 288 285 286 292 288 288 291 289 291 291 291 291 291
296 296 296 295 293 293 294 294 293 298 297 297 295 293 291 291 290 293 292 292 291 292 292 292 290 290 289 289 289 286 285 286 287 289 286 286 289 287 289 288 289 290 290
295 294 293 292 291 291 293 292 291 295 294 293 293 292 292 291 291 289 291 290 289 290 291 290 290 290 290 290 287 287 286 285 286 287 284 282 288 286 289 288 289 289 289
290 290 289 289 290 290 292 291 290 290 289 289 290 291 291 290 289 290 289 287 287 288 289 290 290 291 291 290 289 287 284 283 283 285 285 283 285 284 286 287 288 286 286
288 288 287 288 287 289 291 291 290 290 287 288 288 287 286 289 288 290 286 286 284 286 286 284 285 286 288 288 288 286 285 282 282 282 283 281 283 282 283 285 283 283 283

GFSMA_sfc_thetae_138.txt.gz
Theta_e
322 322 321 320 321 321 320 321 321 322 322 322 323 323 322 319 316 315 315 316 321 324 324 321 319 318 317 315 315 314 313 312 312 311 310 310 309 309 309 308 308 308 308
322 321 320 320 319 320 320 321 321 320 321 322 322 322 323 319 317 315 314 314 319 324 323 321 320 319 318 317 316 315 314 314 313 312 311 311 310 309 308 307 307 307 307
321 320 319 319 319 320 320 321 321 321 322 322 321 321 323 320 317 314 313 313 314 318 321 321 321 320 319 318 318 317 316 315 314 314 313 312 311 309 308 307 307 307 307
323 320 319 319 320 319 320 320 321 320 321 320 320 320 321 318 317 315 313 312 312 314 317 320 320 320 319 318 318 319 318 317 316 315 314 313 311 310 309 308 307 307 307
323 321 319 318 319 319 319 321 320 319 319 319 320 319 318 316 315 316 313 312 312 312 312 316 318 318 317 317 317 319 319 319 317 315 314 313 312 312 310 309 308 308 307
324 322 320 319 319 319 319 320 320 320 319 319 319 317 316 316 315 314 312 313 312 312 311 310 310 308 313 315 316 317 320 320 319 317 315 314 313 312 311 310 309 309 308
325 323 322 321 321 319 319 320 320 319 317 320 318 315 313 314 314 314 313 312 311 311 310 309 307 306 307 314 314 315 318 320 320 319 317 315 313 313 312 311 310 310 309
324 324 323 322 321 320 319 320 319 317 317 320 315 313 309 309 312 312 312 313 311 311 309 308 307 306 305 305 306 313 316 318 319 320 319 317 315 314 313 312 311 311 310
325 324 324 323 322 322 320 320 319 317 313 317 319 314 308 302 307 309 309 311 310 309 309 307 306 305 304 303 306 309 312 314 316 317 318 318 317 315 314 313 312 311 310
326 325 324 324 323 323 321 321 321 319 316 313 316 318 318 313 305 304 308 308 308 309 307 307 305 304 303 302 303 303 306 309 311 312 313 315 316 317 316 314 313 311 310
327 327 325 324 323 324 323 322 319 320 320 318 314 312 314 316 315 311 307 309 308 308 307 307 305 304 302 301 300 300 304 306 306 306 308 309 312 313 315 314 314 312 311
327 327 326 325 324 324 323 323 322 320 320 320 319 317 313 309 311 311 310 310 310 312 309 305 306 304 301 297 299 298 300 302 304 304 305 306 307 308 311 312 312 311 310
326 326 326 324 324 324 324 324 323 322 321 320 319 319 319 316 315 314 312 310 309 310 305 302 304 303 300 297 296 295 297 299 302 303 304 305 305 306 307 308 308 308 308
327 327 326 325 325 325 324 324 323 322 321 320 319 319 319 319 318 317 314 312 309 306 301 304 302 300 299 297 296 296 293 297 298 301 303 304 305 305 305 305 306 305 305
328 326 326 325 325 324 324 323 322 321 321 320 321 320 320 320 319 318 316 315 312 308 304 302 301 300 298 298 295 293 294 295 297 299 300 302 303 304 304 304 304 304 304
327 325 325 325 324 324 324 323 322 322 321 321 321 319 319 319 318 315 314 315 314 313 307 304 300 298 297 296 295 294 294 293 295 297 298 300 301 302 302 303 303 303 303
325 325 324 324 323 323 322 322 323 322 320 320 318 317 317 318 317 315 314 310 311 309 307 300 298 298 296 295 293 292 291 292 290 294 296 297 299 299 300 300 300 300 301
324 324 324 322 322 323 323 323 321 320 319 317 316 315 315 314 313 312 308 306 304 301 301 298 296 293 294 293 292 289 290 291 289 293 295 295 296 297 298 298 298 298 298
322 323 324 323 323 323 322 321 321 318 317 316 315 314 314 312 309 304 302 301 299 297 297 294 293 291 291 291 286 286 286 285 289 291 293 294 295 295 296 297 297 297 297
322 323 323 323 321 320 320 319 318 316 315 314 314 313 311 308 306 302 299 299 296 294 292 289 288 288 288 287 283 285 283 280 281 289 291 291 292 292 293 294 294 294 294
320 318 317 317 317 317 316 315 314 314 312 307 303 303 303 300 296 300 299 297 295 291 288 288 287 287 286 285 285 285 280 280 281 281 281 283 285 284 285 289 290 292 293
310 310 309 308 309 307 301 302 306 307 302 301 299 297 297 290 294 295 296 296 296 293 288 288 286 286 287 286 285 281 279 277 277 281 279 279 282 280 283 284 290 292 292
301 302 302 302 302 302 298 298 297 303 302 301 298 296 292 292 290 291 294 294 293 294 294 291 288 288 287 286 284 283 282 284 284 281 277 275 278 278 280 284 290 291 291
297 298 299 299 299 296 295 296 294 299 299 298 296 293 292 289 288 288 289 288 288 289 290 290 290 288 288 284 285 284 285 283 282 280 278 277 277 276 280 280 288 288 288
293 292 291 291 291 290 294 294 294 292 291 291 291 292 291 287 290 292 288 286 286 285 290 291 291 291 291 289 287 285 280 275 272 275 280 281 277 275 276 277 280 288 288
290 288 287 289 288 289 293 293 292 289 288 287 287 288 286 288 291 292 288 286 285 284 284 284 283 285 288 288 288 285 283 279 275 275 280 277 279 276 273 276 277 277 279

GFSMA_sfc_thetae_141.txt.gz
Theta_e
320 319 319 318 318 319 317 318 319 320 319 321 322 321 319 317 314 314 313 315 319 324 324 323 321 320 319 318 316 316 316 315 314 314 313 311 311 309 309 308 308 308 308
321 320 318 318 318 319 319 318 319 318 319 321 321 322 323 318 316 313 313 313 318 322 324 324 323 322 321 320 319 319 317 316 315 314 313 311 311 310 310 308 307 307 307
321 321 319 317 318 318 318 317 318 318 318 320 320 321 322 320 316 313 312 312 313 318 322 323 323 323 322 322 321 320 319 318 317 315 314 314 313 311 310 309 308 308 307
321 318 318 317 318 317 317 317 318 318 317 317 318 320 320 319 316 314 312 311 311 313 316 322 323 323 323 323 322 321 321 320 318 317 315 315 314 313 312 311 310 309 308
322 319 317 317 318 317 316 317 318 317 316 316 319 319 319 316 315 315 312 311 310 311 310 315 319 320 322 322 322 322 322 322 320 318 317 316 315 314 313 312 311 310 309
322 321 319 318 317 316 315 317 317 317 317 315 317 317 318 316 314 312 312 312 310 310 310 310 310 311 317 319 321 322 322 322 322 321 319 317 316 315 314 313 312 311 310
322 321 321 318 317 316 317 318 317 316 315 316 317 315 316 315 313 314 314 312 310 310 309 309 307 307 308 317 318 320 322 322 321 322 321 319 318 316 315 315 314 313 311
323 322 321 320 319 317 317 318 318 315 317 316 312 312 309 308 309 313 311 313 312 310 309 308 307 306 305 305 310 317 319 320 321 321 322 322 320 318 317 316 316 315 313
324 323 323 322 321 320 318 318 318 317 315 314 315 310 304 302 304 307 307 309 310 308 309 308 307 306 306 305 307 309 314 315 316 319 320 320 321 322 319 318 317 316 315
324 323 323 323 322 321 320 319 319 318 316 314 311 316 312 308 305 303 307 307 307 308 308 308 306 305 306 305 304 303 306 311 313 314 315 316 318 318 320 320 318 316 316
325 323 323 322 322 322 321 321 319 318 318 317 315 309 313 311 311 311 306 306 307 306 309 308 307 307 305 304 301 301 306 308 309 309 310 311 312 314 317 318 318 318 317
325 325 324 323 322 322 322 321 321 320 319 319 318 315 312 309 311 310 308 308 308 309 308 307 305 306 306 302 301 300 303 305 307 307 307 307 308 310 312 315 315 316 316
324 325 325 323 323 322 322 322 321 320 319 319 318 317 317 315 311 312 310 309 309 310 309 305 306 307 303 299 297 296 299 301 303 304 304 305 307 308 309 310 311 313 312
326 326 326 325 324 324 323 322 322 321 321 319 319 318 318 318 316 316 314 311 308 307 305 308 304 302 300 297 297 296 294 298 299 301 302 304 305 306 307 308 309 308 308
326 326 326 325 325 324 323 323 322 321 321 320 319 318 318 319 319 319 318 316 313 307 306 305 305 302 297 298 296 295 294 295 298 300 300 301 303 305 306 306 306 307 307
325 325 325 325 324 324 323 322 322 322 321 321 320 319 319 320 320 319 319 317 315 313 309 308 304 300 298 297 296 295 295 294 295 296 297 299 300 302 303 304 304 305 306
326 324 324 324 324 323 323 322 322 322 321 320 321 320 319 320 319 318 317 316 315 314 311 305 300 299 297 296 294 293 292 292 291 293 295 297 298 299 300 301 301 302 301
324 324 325 324 323 323 323 321 321 321 321 319 320 318 318 318 317 318 316 314 314 312 311 307 297 295 296 295 294 291 291 291 288 292 294 295 296 296 297 298 298 298 298
323 323 324 324 324 323 322 322 321 321 320 320 319 317 318 316 314 314 312 312 309 301 303 298 295 293 292 291 289 288 288 286 289 291 293 294 294 295 295 296 296 295 295
320 321 322 324 323 323 322 322 321 321 319 318 318 317 316 315 314 311 308 307 302 299 295 291 288 289 288 287 287 286 285 284 285 287 290 290 291 292 293 294 294 293 292
318 319 320 321 322 321 320 319 318 318 317 316 314 314 314 308 301 305 305 302 299 294 289 289 287 286 286 285 286 285 285 284 282 279 280 282 284 283 284 288 288 290 292
310 313 312 313 314 315 307 305 312 315 313 313 311 305 302 292 296 297 298 298 300 296 291 289 287 287 287 287 285 285 285 283 278 280 279 279 281 279 281 283 289 291 291
302 305 307 307 308 312 301 302 300 314 311 309 305 300 295 294 293 295 295 295 295 296 295 293 288 288 287 287 286 284 283 280 284 284 278 275 278 278 280 283 290 289 289
298 301 301 303 304 301 298 298 295 306 303 302 300 299 297 292 292 292 291 289 289 290 292 292 292 289 289 287 287 285 283 281 282 280 278 275 276 276 278 278 289 288 288
296 297 294 296 295 297 295 296 296 294 294 294 296 296 296 292 291 292 289 287 286 286 291 291 291 291 290 289 286 284 279 275 272 277 280 277 276 275 275 276 280 287 287
292 294 293 292 292 294 293 294 295 292 290 290 289 290 288 292 291 292 289 287 286 285 285 285 287 289 289 288 288 284 280 275 272 274 282 275 275 274 273 275 276 276 277

GFSMA_sfc_thetae_144.txt.gz
Theta_e
319 319 320 319 318 318 317 316 317 317 317 318 319 319 316 316 313 313 311 314 319 323 326 325 323 323 321 320 318 317 316 316 315 315 314 313 313 311 311 310 309 309 308
320 319 319 318 317 317 317 316 317 317 317 318 319 321 322 320 314 313 312 312 318 321 324 325 325 324 324 323 322 320 319 318 317 315 315 314 314 312 312 311 310 309 308
321 321 319 318 317 317 317 316 316 316 316 318 318 320 320 319 315 313 312 311 312 318 321 325 325 325 325 325 324 323 321 320 319 317 316 315 314 314 312 312 311 310 309
322 320 319 318 318 317 317 315 315 315 315 315 315 316 319 317 315 314 312 311 310 312 315 321 324 324 325 326 325 325 323 323 321 320 319 317 316 315 314 313 312 311 310
323 321 319 319 318 317 315 315 315 315 314 315 315 315 316 315 315 316 312 311 310 310 310 314 319 321 323 324 326 326 325 324 323 322 321 319 318 317 316 315 314 312 312
323 320 319 318 318 317 315 314 314 315 315 315 316 315 316 316 313 312 313 313 310 310 309 309 309 312 317 321 323 325 325 325 324 323 323 321 320 319 318 317 316 315 314
322 321 320 318 317 316 316 315 315 315 315 314 313 313 314 314 315 313 313 313 311 310 308 309 309 308 309 318 321 323 324 325 325 323 323 324 322 321 319 318 317 317 315
322 321 321 319 318 316 315 315 316 314 316 315 313 312 309 307 308 312 312 313 313 311 309 308 308 308 307 307 310 318 321 323 324 324 323 323 323 324 322 320 319 318 318
324 322 321 320 319 318 317 316 316 315 314 312 315 312 303 301 302 306 306 309 311 307 309 308 308 308 307 307 309 311 316 318 319 320 320 321 322 323 323 323 321 320 319
325 323 323 321 320 320 319 318 317 316 316 313 310 316 312 305 303 301 305 305 306 307 308 307 308 307 307 306 306 305 307 313 315 315 315 317 318 320 320 322 322 322 320
325 323 323 322 321 321 320 319 318 316 317 316 314 308 314 312 307 307 306 305 306 306 308 309 309 308 306 305 304 304 306 309 310 311 312 312 312 315 317 319 319 320 321
324 324 322 322 322 321 320 320 320 318 317 317 317 316 312 309 311 309 308 309 307 307 309 309 307 307 306 304 303 302 305 308 309 310 310 309 309 310 312 314 316 317 318
323 324 323 321 322 321 322 321 320 319 318 317 317 317 316 315 311 312 310 309 307 308 308 310 310 307 305 303 300 298 300 305 307 307 307 306 307 308 309 311 312 313 313
324 325 324 324 323 322 321 321 320 320 320 319 318 317 317 316 316 314 312 310 308 308 306 308 307 304 305 301 299 296 297 301 302 303 303 304 305 306 307 309 309 310 310
325 325 324 324 324 323 322 321 321 321 321 320 319 319 318 318 318 316 316 315 312 307 308 306 307 305 301 298 297 297 296 296 299 300 301 302 303 304 305 307 308 308 308
325 324 324 324 324 324 323 323 322 322 321 321 321 319 319 319 319 318 317 317 316 313 309 310 307 304 300 298 295 296 295 294 297 298 298 299 300 301 302 304 305 305 306
326 324 324 324 324 324 324 323 322 322 321 321 321 320 319 319 318 319 318 318 316 315 311 314 305 301 298 297 294 295 294 292 293 295 296 297 298 298 299 301 301 302 302
325 325 324 324 324 324 324 323 322 321 321 320 320 319 318 319 318 319 318 316 316 316 313 311 301 297 297 295 294 292 292 292 291 292 295 295 296 296 296 297 298 298 298
319 323 323 323 323 323 323 323 322 322 321 321 321 319 319 318 317 317 317 316 315 313 312 311 299 293 292 291 290 289 289 289 290 291 294 294 294 295 295 295 295 295 294
314 317 320 321 322 323 323 323 322 321 321 321 320 320 319 318 317 317 315 314 312 309 302 293 289 289 289 288 288 287 286 286 286 288 290 290 291 291 292 293 293 291 291
305 310 314 317 319 320 321 321 321 321 320 319 318 318 318 313 304 311 313 311 307 303 292 291 287 287 286 285 287 286 286 285 285 285 285 282 283 283 284 286 287 290 291
297 301 304 308 313 316 309 305 312 319 317 316 316 315 315 298 301 300 301 304 306 304 296 295 290 288 287 288 286 286 285 283 284 283 279 280 281 279 281 282 289 291 290
294 295 297 300 304 308 304 303 300 314 315 315 315 312 301 300 297 305 298 298 298 299 300 299 291 291 289 288 287 285 285 284 284 282 278 276 278 278 279 283 290 289 288
290 292 294 297 299 302 301 300 298 308 313 312 312 307 306 301 297 296 295 293 292 293 293 295 296 293 292 290 290 288 286 284 282 282 278 276 276 275 277 278 289 287 287
289 289 291 292 293 295 297 297 297 299 300 299 302 304 304 298 295 294 292 289 287 287 292 293 293 293 292 291 288 286 284 283 273 279 279 277 276 274 274 276 280 286 286
287 288 288 290 290 292 295 295 296 296 295 295 291 292 289 297 292 294 293 289 287 286 286 286 287 289 290 289 289 287 285 283 273 273 279 277 274 275 272 275 276 275 278

GFSMA_sfc_thetae_147.txt.gz
Theta_e
316 316 317 317 317 317 317 315 315 316 315 316 317 318 315 313 313 312 311 313 319 323 325 327 325 324 323 322 320 318 318 317 316 316 316 314 314 314 313 312 311 310 309
318 317 317 317 317 317 317 316 316 316 316 317 317 318 317 316 315 312 312 311 317 321 323 326 326 325 325 324 323 322 321 320 318 317 316 316 315 315 314 312 311 310 310
319 319 318 319 319 317 317 316 315 314 315 316 316 318 317 317 315 313 311 311 312 318 320 323 326 327 326 325 325 325 324 323 321 319 318 317 317 316 315 314 313 312 311
321 320 319 319 319 317 316 315 315 314 314 314 314 316 316 315 315 314 312 311 310 311 315 321 323 325 326 327 327 326 326 325 324 322 321 320 318 318 317 316 315 313 312
322 321 320 320 317 317 317 316 314 315 313 314 315 316 314 313 313 315 312 311 311 311 310 314 318 320 324 326 327 327 327 327 325 325 324 322 321 320 319 318 317 316 315
322 321 321 321 319 318 316 315 315 314 315 315 316 316 315 315 313 312 313 314 311 310 310 309 309 311 316 322 324 326 327 327 326 326 325 324 323 322 321 320 319 318 317
323 322 322 319 318 318 318 316 315 314 313 313 312 312 313 315 313 313 312 312 311 311 309 310 309 309 309 318 321 324 326 327 326 326 326 325 325 325 323 322 321 320 319
324 322 322 321 318 317 316 316 315 314 314 313 311 308 309 309 309 314 313 312 312 312 310 309 309 308 308 308 310 319 323 325 326 326 326 326 325 325 325 325 323 322 321
324 323 323 322 320 318 317 316 315 314 313 311 315 311 302 302 301 305 305 309 310 308 311 309 308 309 308 307 310 312 317 320 322 323 323 323 323 323 324 324 324 324 323
325 324 323 322 321 319 319 318 316 315 314 312 309 315 315 305 301 300 304 304 305 306 307 307 309 308 307 307 306 306 308 314 317 319 319 319 320 320 322 322 323 323 323
324 324 323 322 321 320 319 319 316 315 316 314 313 307 313 314 306 309 307 308 305 304 306 307 308 308 307 307 305 305 308 310 312 313 315 316 316 317 318 319 321 321 322
323 324 323 322 322 321 320 319 318 316 315 316 315 315 312 309 312 311 309 310 308 309 307 308 307 309 309 305 304 303 306 309 311 311 311 312 312 313 314 315 317 318 320
322 322 322 321 321 322 321 321 320 319 317 317 317 316 316 315 315 312 310 309 305 305 306 309 312 311 309 307 304 300 302 307 309 310 310 310 310 310 310 312 314 315 315
324 325 323 323 322 322 322 321 320 320 320 319 317 318 317 317 317 316 312 310 307 308 306 309 310 311 310 306 304 298 299 302 307 308 308 307 306 307 308 309 311 312 312
325 324 323 323 323 322 321 322 320 320 320 320 319 319 318 318 318 317 316 314 311 306 308 307 309 309 307 302 300 298 297 298 303 304 304 304 304 305 306 307 309 310 311
324 323 323 322 323 323 323 322 322 321 320 320 320 319 319 319 319 319 316 315 314 312 308 312 309 310 302 300 296 297 296 295 299 301 302 301 302 303 303 304 306 307 307
318 322 323 322 323 323 324 323 322 322 320 320 320 319 319 319 318 318 318 316 315 314 310 314 311 307 300 296 295 296 295 293 295 297 299 299 299 300 300 301 302 303 303
311 315 318 322 323 323 324 323 322 322 321 320 320 320 319 319 318 318 317 316 316 316 314 311 311 299 299 297 295 293 293 292 293 295 297 297 298 297 297 298 298 299 298
302 306 311 314 318 321 322 323 323 322 322 321 321 320 320 319 317 317 317 316 316 315 316 313 312 295 293 292 291 290 290 290 291 292 296 296 296 296 296 296 296 295 295
296 298 301 304 310 315 319 321 322 322 322 322 321 321 321 319 318 318 316 316 315 314 313 311 302 291 290 288 288 287 286 286 287 289 291 291 293 294 294 295 295 293 292
293 295 297 299 302 306 311 315 318 319 320 320 320 320 320 316 306 313 316 315 314 312 309 304 290 287 288 287 289 288 288 286 285 284 286 286 286 284 284 290 289 290 292
290 291 292 294 296 299 299 300 303 313 317 317 317 318 318 301 303 301 303 306 312 312 305 302 298 294 290 288 288 288 286 284 284 285 285 284 284 281 281 282 289 291 292
287 288 289 291 292 295 296 297 296 303 309 314 316 316 314 311 301 312 303 301 302 303 308 304 301 297 293 290 290 287 286 286 286 284 284 282 281 278 279 283 290 291 289
285 286 287 288 289 291 294 295 294 297 302 307 312 312 312 307 304 305 307 303 303 301 302 302 305 300 299 294 293 291 289 286 283 283 282 281 278 275 277 279 290 289 289
284 284 286 286 287 288 291 292 293 293 295 298 303 308 310 309 302 297 303 297 294 292 293 295 296 296 295 294 291 288 285 286 280 281 281 280 278 274 274 276 280 288 288
280 281 284 286 287 287 290 291 292 291 290 293 295 296 292 300 298 296 298 294 292 291 288 287 287 291 292 291 291 292 288 287 280 279 281 281 277 276 273 278 278 273 278